Salmon, ID

3:18 PM MDT on April 21, 2018 (GMT -0600)
Lemhi County

Weather History for KSMN - January, 2013

Change the Weather History Date:

Thursday, January 10, 2013

  Actual Average Record
Temperature  
Mean Temperature 31 °F -  
Max Temperature 41 °F 25 °F 53 °F (1990)
Min Temperature 21 °F 12 °F -18 °F (1977)
Degree Days  
Heating Degree Days 34    
Moisture  
Dew Point 26 °F    
Average Humidity 84    
Maximum Humidity 93    
Minimum Humidity 61    
Precipitation  
Precipitation 0.05 in - - ()
Sea Level Pressure  
Sea Level Pressure 29.57 in    
Wind  
Wind Speed 9 mph (SSE)    
Max Wind Speed 23 mph    
Max Gust Speed 30 mph    
Visibility 7 miles    
Events      
Averages and records for this station are not official NWS values.
T = Trace of Precipitation, MM = Missing Value Source: NWS Daily Summary

Daily Weather History Graph

Daily Weather History Graph

Search for Another Location

Airport or City:

Astronomy

Jan. 10, 2013 Rise Set
Actual Time 8:12 AM MST 5:14 PM MST
Civil Twilight 7:39 AM MST 5:47 PM MST
Nautical Twilight 7:02 AM MST 6:24 PM MST
Astronomical Twilight 6:27 AM MST 6:59 PM MST
Moon 6:56 AM MST (1/10) 4:27 PM MST (1/10)
Length of Visible Light 10h 07m
Length of Day
9h 01m
Waning Crescent, 2% of the Moon is Illuminated
Jan 10
Waning Crescent
Jan 11
New
Jan 18
First Quarter
Jan 26
Full
Feb 3
Last Quarter

Hourly Weather History & Observations

Time (MST) Temp. Windchill Dew Point Humidity Pressure Visibility Wind Dir Wind Speed Gust Speed Precip Events Conditions
12:15 AM 41.0 °F 31.9 °F 28.4 °F 61% 29.60 in 10.0 mi South 19.6 mph 25.3 mph N/A   Overcast
12:35 AM 39.2 °F 29.8 °F 30.2 °F 70% 29.59 in 10.0 mi SSW 18.4 mph 24.2 mph N/A   Overcast
12:55 AM 37.4 °F 30.3 °F 30.2 °F 75% 29.60 in 10.0 mi SSW 10.4 mph 20.7 mph N/A   Overcast
1:15 AM 37.4 °F 32.1 °F 32.0 °F 81% 29.59 in 10.0 mi ESE 6.9 mph - N/A   Overcast
1:35 AM 37.4 °F 33.8 °F 32.0 °F 81% 29.57 in 10.0 mi SE 4.6 mph - N/A   Overcast
1:55 AM 37.4 °F 32.8 °F 32.0 °F 81% 29.57 in 10.0 mi SE 5.8 mph - N/A   Overcast
2:15 AM 37.4 °F 29.3 °F 32.0 °F 81% 29.57 in 10.0 mi South 12.7 mph - N/A   Mostly Cloudy
2:35 AM 37.4 °F 30.3 °F 32.0 °F 81% 29.56 in 10.0 mi South 10.4 mph - N/A   Overcast
2:55 AM 37.4 °F 29.3 °F 32.0 °F 81% 29.56 in 10.0 mi South 12.7 mph - N/A   Overcast
3:15 AM 37.4 °F 29.3 °F 32.0 °F 81% 29.55 in 10.0 mi South 12.7 mph - N/A   Overcast
3:35 AM 39.2 °F 32.0 °F 30.2 °F 70% 29.55 in 10.0 mi SSE 11.5 mph 17.3 mph N/A   Overcast
3:55 AM 37.4 °F 30.8 °F 32.0 °F 81% 29.53 in 10.0 mi SSW 9.2 mph - N/A   Overcast
4:15 AM 37.4 °F 32.1 °F 30.2 °F 75% 29.52 in 10.0 mi WSW 6.9 mph - N/A   Overcast
4:35 AM 35.6 °F 30.7 °F 32.0 °F 87% 29.51 in 10.0 mi NNE 5.8 mph - N/A   Overcast
4:55 AM 35.6 °F 29.9 °F 32.0 °F 87% 29.51 in 10.0 mi NW 6.9 mph - N/A   Overcast
5:15 AM 35.6 °F 26.6 °F 32.0 °F 87% 29.52 in 10.0 mi NNW 13.8 mph 18.4 mph N/A   Mostly Cloudy
5:35 AM 32.0 °F 19.8 °F 28.4 °F 87% 29.53 in 0.8 mi NNE 20.7 mph 26.5 mph N/A   Overcast
5:55 AM 30.2 °F 16.8 °F 28.4 °F 93% 29.54 in 0.5 mi NNE 23.0 mph 29.9 mph N/A   Overcast
6:15 AM 30.2 °F 19.3 °F 28.4 °F 93% 29.55 in 1.2 mi NNE 15.0 mph - N/A   Overcast
6:35 AM 30.2 °F 24.3 °F 28.4 °F 93% 29.56 in 2.5 mi NW 5.8 mph - N/A   Overcast
7:35 AM 30.2 °F 23.4 °F 28.4 °F 93% 29.55 in 7.0 mi SE 6.9 mph - N/A   Overcast
7:55 AM 30.2 °F 24.3 °F 28.4 °F 93% 29.56 in 8.0 mi SE 5.8 mph - N/A   Overcast
8:15 AM 30.2 °F 22.6 °F 26.6 °F 86% 29.56 in 5.0 mi ESE 8.1 mph - N/A   Overcast
8:35 AM 30.2 °F 23.4 °F 28.4 °F 93% 29.56 in 0.8 mi ESE 6.9 mph - N/A   Overcast
8:55 AM 30.2 °F 25.4 °F 26.6 °F 86% 29.56 in 2.0 mi ESE 4.6 mph - N/A   Overcast
9:15 AM 30.2 °F 25.4 °F 28.4 °F 93% 29.55 in 8.0 mi East 4.6 mph - N/A   Overcast
9:35 AM 30.2 °F 24.3 °F 26.6 °F 86% 29.55 in 8.0 mi East 5.8 mph - N/A   Mostly Cloudy
9:55 AM 30.2 °F - 28.4 °F 93% 29.56 in 1.5 mi Calm Calm - N/A   Overcast
10:15 AM 30.2 °F - 28.4 °F 93% 29.56 in 5.0 mi Calm Calm - N/A   Overcast
10:35 AM 30.2 °F - 28.4 °F 93% 29.56 in 2.5 mi Calm Calm - N/A   Overcast
11:15 AM 30.2 °F 26.7 °F 28.4 °F 93% 29.55 in 0.8 mi South 3.5 mph - N/A   Overcast
11:35 AM 30.2 °F 26.7 °F 28.4 °F 93% 29.55 in 1.0 mi SSE 3.5 mph - N/A   Overcast
11:55 AM 30.2 °F - 28.4 °F 93% 29.55 in 1.0 mi Calm Calm - N/A   Overcast
12:35 PM 30.2 °F - 28.4 °F 93% 29.53 in 1.2 mi Calm Calm - 0.01 in   Overcast
12:55 PM 30.2 °F - 28.4 °F 93% 29.53 in 1.2 mi Calm Calm - 0.02 in   Overcast
1:35 PM 30.2 °F - 28.4 °F 93% 29.54 in 2.5 mi Calm Calm - 0.03 in   Mostly Cloudy
1:55 PM 30.2 °F 21.9 °F 26.6 °F 86% 29.54 in 2.5 mi NE 9.2 mph - 0.03 in   Overcast
2:15 PM 28.4 °F 20.4 °F 26.6 °F 93% 29.54 in 2.0 mi NNE 8.1 mph - N/A   Overcast
2:35 PM 28.4 °F 23.3 °F 26.6 °F 93% 29.55 in 1.5 mi NNE 4.6 mph - N/A   Overcast
3:15 PM 28.4 °F - 24.8 °F 86% 29.56 in 6.0 mi Calm Calm - N/A   Overcast
3:35 PM 28.4 °F 24.6 °F 26.6 °F 93% 29.55 in 8.0 mi ENE 3.5 mph - N/A   Overcast
3:55 PM 28.4 °F 21.2 °F 26.6 °F 93% 29.56 in 10.0 mi SSE 6.9 mph - N/A   Overcast
4:15 PM 28.4 °F 23.3 °F 24.8 °F 86% 29.56 in 10.0 mi South 4.6 mph - N/A   Overcast
4:55 PM 28.4 °F 20.4 °F 23.0 °F 80% 29.57 in 10.0 mi SSE 8.1 mph - N/A   Overcast
5:15 PM 28.4 °F - 19.4 °F 69% 29.58 in 10.0 mi Calm Calm - N/A   Overcast
5:35 PM 28.4 °F 24.6 °F 17.6 °F 64% 29.59 in 10.0 mi South 3.5 mph - N/A   Overcast
5:55 PM 28.4 °F 22.2 °F 17.6 °F 64% 29.59 in 10.0 mi SE 5.8 mph - N/A   Overcast
6:15 PM 26.6 °F 19.1 °F 19.4 °F 74% 29.60 in 8.0 mi East 6.9 mph - N/A   Overcast
6:55 PM 24.8 °F 20.5 °F 19.4 °F 80% 29.61 in 5.0 mi SE 3.5 mph - N/A   Overcast
7:15 PM 24.8 °F 16.9 °F 21.2 °F 86% 29.61 in 10.0 mi South 6.9 mph - N/A   Overcast
7:35 PM 24.8 °F 16.9 °F 19.4 °F 80% 29.61 in 10.0 mi SSW 6.9 mph - N/A   Overcast
7:55 PM 24.8 °F 20.5 °F 19.4 °F 80% 29.61 in 10.0 mi West 3.5 mph - N/A   Mostly Cloudy
8:15 PM 24.8 °F 20.5 °F 19.4 °F 80% 29.61 in 10.0 mi NW 3.5 mph - N/A   Overcast
8:35 PM 24.8 °F - 17.6 °F 74% 29.61 in 10.0 mi Calm Calm - N/A   Overcast
8:55 PM 23.0 °F 17.0 °F 19.4 °F 86% 29.61 in 10.0 mi SSE 4.6 mph - N/A   Overcast
9:15 PM 23.0 °F - 17.6 °F 80% 29.61 in 10.0 mi Calm Calm - N/A   Overcast
9:35 PM 21.2 °F 12.6 °F 17.6 °F 86% 29.61 in 10.0 mi SSE 6.9 mph - N/A   Overcast
10:15 PM 21.2 °F - 17.6 °F 86% 29.62 in 10.0 mi Calm Calm - N/A   Overcast
10:35 PM 21.2 °F - 15.8 °F 80% 29.61 in 10.0 mi Calm Calm - N/A   Overcast
10:55 PM 21.2 °F - 17.6 °F 86% 29.62 in 10.0 mi Calm Calm - N/A   Overcast
11:15 PM 21.2 °F - 17.6 °F 86% 29.61 in 10.0 mi Calm Calm - N/A   Overcast
11:35 PM 21.2 °F - 17.6 °F 86% 29.62 in 10.0 mi Calm Calm - N/A   Overcast
11:55 PM 21.2 °F 14.9 °F 19.4 °F 93% 29.61 in 9.0 mi SSW 4.6 mph - N/A   Overcast